Findlay, OH

3:05 PM EDT on July 21, 2017 (GMT -0400)
Findlay

Weather History for KFDY - October, 2013

Change the Weather History Date:

Wednesday, October 2, 2013

  Actual Average Record
Temperature  
Mean Temperature 71 °F -  
Max Temperature 82 °F 68 °F 86 °F (1953)
Min Temperature 60 °F 47 °F 28 °F (2003)
Cooling Degree Days 6    
Growing Degree Days 21 (Base 50)    
Moisture  
Dew Point 62 °F    
Average Humidity 80    
Maximum Humidity 94    
Minimum Humidity 49    
Precipitation  
Precipitation 0.00 in - - ()
Sea Level Pressure  
Sea Level Pressure 30.04 in    
Wind  
Wind Speed 6 mph (WSW)    
Max Wind Speed 8 mph    
Max Gust Speed -    
Visibility 7 miles    
Events      
Averages and records for this station are not official NWS values.
T = Trace of Precipitation, MM = Missing Value Source: NWS Daily Summary

Daily Weather History Graph

Daily Weather History Graph

Search for Another Location

Airport or City:

Trip Planner

Search our weather history database for the weather conditions in past years. The results will help you decide how hot, cold, wet, or windy it might be!

Date:

Astronomy

Oct. 02, 2013 Rise Set
Actual Time 7:32 AM EDT 7:14 PM EDT
Civil Twilight 7:05 AM EDT 7:41 PM EDT
Nautical Twilight 6:33 AM EDT 8:13 PM EDT
Astronomical Twilight 6:01 AM EDT 8:45 PM EDT
Moon 5:03 AM EDT (10/2) 5:50 PM EDT (10/2)
Length of Visible Light 12h 36m
Length of Day
11h 41m
Waning Crescent, 6% of the Moon is Illuminated
Oct 2
Waning Crescent
Oct 4
New
Oct 11
First Quarter
Oct 18
Full
Oct 26
Last Quarter

Hourly Weather History & Observations

Time (EDT) Temp. Heat Index Dew Point Humidity Pressure Visibility Wind Dir Wind Speed Gust Speed Precip Events Conditions
12:53 AM 60.1 °F - 57.0 °F 90% 30.00 in 8.0 mi South 6.9 mph - N/A   Clear
1:53 AM 61.0 °F - 57.9 °F 90% 30.00 in 8.0 mi SSW 5.8 mph - N/A   Clear
2:53 AM 63.0 °F - 59.0 °F 87% 30.01 in 8.0 mi SW 5.8 mph - N/A   Clear
3:53 AM 62.1 °F - 59.0 °F 90% 30.01 in 6.0 mi SSW 4.6 mph - N/A   Clear
4:53 AM 63.0 °F - 59.0 °F 87% 30.01 in 6.0 mi North - - N/A   Clear
5:53 AM 62.1 °F - 60.1 °F 93% 30.02 in 6.0 mi SW 3.5 mph - N/A   Mostly Cloudy
6:53 AM 62.1 °F - 60.1 °F 93% 30.03 in 5.0 mi SW 5.8 mph - N/A   Mostly Cloudy
7:51 AM 64.4 °F - 62.6 °F 94% 30.07 in 3.0 mi WSW 4.6 mph - N/A   Overcast
7:53 AM 64.0 °F - 62.1 °F 93% 30.05 in 3.0 mi WSW 4.6 mph - N/A   Overcast
8:19 AM 64.4 °F - 62.6 °F 94% 30.07 in 3.0 mi West 8.1 mph - N/A   Overcast
8:53 AM 66.0 °F - 63.0 °F 90% 30.07 in 3.0 mi West 6.9 mph - N/A   Overcast
9:13 AM 66.2 °F - 64.4 °F 94% 30.08 in 3.0 mi West 6.9 mph - N/A   Scattered Clouds
9:44 AM 68.0 °F - 64.4 °F 88% 30.09 in 4.0 mi West 6.9 mph - N/A   Partly Cloudy
9:53 AM 68.0 °F - 64.0 °F 87% 30.08 in 4.0 mi West 8.1 mph - N/A   Partly Cloudy
10:24 AM 69.8 °F - 64.4 °F 83% 30.10 in 5.0 mi WNW 4.6 mph - N/A   Haze
10:44 AM 69.8 °F - 64.4 °F 83% 30.10 in 5.0 mi Variable 4.6 mph - N/A   Haze
10:53 AM 71.1 °F - 64.0 °F 78% 30.08 in 6.0 mi WNW 4.6 mph - N/A   Haze
11:53 AM 73.9 °F - 64.0 °F 71% 30.08 in 8.0 mi NW 3.5 mph - N/A   Partly Cloudy
12:53 PM 75.9 °F - 64.0 °F 67% 30.06 in 9.0 mi West 5.8 mph - N/A   Clear
1:53 PM 79.0 °F - 64.0 °F 60% 30.05 in 10.0 mi WNW 5.8 mph - N/A   Clear
2:53 PM 81.0 °F 82.5 °F 64.0 °F 56% 30.03 in 10.0 mi Variable 4.6 mph - N/A   Scattered Clouds
3:53 PM 81.0 °F 82.2 °F 63.0 °F 54% 30.02 in 9.0 mi WNW 4.6 mph - N/A   Partly Cloudy
4:53 PM 82.0 °F 82.7 °F 61.0 °F 49% 30.00 in 10.0 mi Variable 5.8 mph - N/A   Scattered Clouds
5:53 PM 79.0 °F - 64.0 °F 60% 30.01 in 10.0 mi SW 6.9 mph - N/A   Mostly Cloudy
6:53 PM 75.9 °F - 63.0 °F 64% 30.01 in 10.0 mi WSW 4.6 mph - N/A   Clear
7:53 PM 72.0 °F - 62.1 °F 71% 30.02 in 9.0 mi SW 4.6 mph - N/A   Partly Cloudy
8:53 PM 72.0 °F - 63.0 °F 73% 30.02 in 10.0 mi East 8.1 mph - N/A   Mostly Cloudy
9:53 PM 69.1 °F - 62.1 °F 78% 30.02 in 10.0 mi ESE 3.5 mph - N/A   Clear
10:53 PM 66.0 °F - 61.0 °F 84% 30.04 in 10.0 mi Calm Calm - N/A   Clear
11:53 PM 68.0 °F - 63.0 °F 84% 30.04 in 10.0 mi Calm Calm - N/A   Overcast